Regional Weather Roundup
Issued by NWS Huntsville, AL

Home | Current Version | Previous Version | Text Only | Print | Product List | Glossary On
Versions: 1 2 3 4 5 6 7 8 9 10 11 12 13 14 15 16 17 18 19 20 21 22 23 24 25 26 27
000
ASUS44 KHUN 210210
RWRHUN

WEATHER ROUNDUP FOR THE TENNESSEE VALLEY
NATIONAL WEATHER SERVICE HUNTSVILLE AL
900 PM CDT SUN AUG 20 2017

ALZ001>004-210300-
NORTHWEST ALABAMA

CITY           SKY/WX    TMP DP  RH WIND       PRES   REMARKS
COURTLAND HCN    N/A     75 N/A N/A CALM        N/A
RUSSELLVILLE     N/A     75 N/A N/A MISG        N/A
SHOALS AIRPORT CLOUDY    76  70  82 SE3       30.09R
SHOALS TVA RES   N/A     79 N/A N/A MISG        N/A
$$

ALZ005>007-016-210300-
NORTH CENTRAL ALABAMA

CITY           SKY/WX    TMP DP  RH WIND       PRES   REMARKS
CULLMAN AG STN   N/A     75 N/A N/A CALM        N/A
DECATUR AP       N/A     75  73  93 CALM      30.09R
HUNTSVILLE AP  PTCLDY    81  74  79 CALM      30.09R
MERIDIANVILLE  PTCLDY    73  70  88 CALM      30.11R
REDSTONE ARSN  PTCLDY    79  73  81 CALM      30.09R
VINEMONT AP    FAIR     N/A N/A N/A S3        30.13S
$$

ALZ008>010-210300-
NORTHEAST ALABAMA

CITY           SKY/WX    TMP DP  RH WIND       PRES   REMARKS
ALBERTVILLE    CLEAR     77  77 100 CALM      30.11S
FORT PAYNE     CLEAR     73  68  83 CALM      30.12S
SCOTTSBORO HCN   N/A     75 N/A N/A MISG        N/A
$$

TNZ076-096-097-210300-
SOUTHEASTERN MIDDLE TENNESSEE

CITY           SKY/WX    TMP DP  RH WIND       PRES   REMARKS
TULLAHOMA        N/A     79  66  65 CALM      30.14R
WINCHESTER     CLEAR     77  72  83 CALM      30.13R
$$

...SURROUNDING SITES...

CITY           SKY/WX    TMP DP  RH WIND       PRES   REMARKS
ATLANTA        PTCLDY    85  67  54 SE5       30.13R
ANNISTON       CLEAR     80  75  84 CALM      30.10R
BIRMINGHAM     PTCLDY    79  77  94 CALM      30.12R
CHATTANOOGA    PTCLDY    80  71  74 CALM      30.11R
DALTON         NOT AVBL
GADSDEN        CLEAR     75  74  96 CALM      30.11R
GOLDEN TRNGL   CLOUDY    84  72  65 E3          N/A
HALEYVILLE     FAIR      77  76  96 CALM      30.13R
JACKSON TN     PTCLDY    78  76  93 CALM      30.07R
MEMPHIS        PTCLDY    79  74  84 SW5       30.05R
NASHVILLE      PTCLDY    82  68  62 S3        30.09R
OXFORD MS      FAIR      75  73  94 SE6       30.09R
ROME           CLEAR     78  74  87 CALM      30.11R
SAVANNAH       PTCLDY    75  73  94 CALM      30.06R
SELMER         CLEAR     75  73  94 CALM      30.07R
TUPELO           N/A     80  73  79 S5        30.05S
TUSCALOOSA     CLOUDY    80  78  94 CALM      30.06S
$$

...GULF COAST WEATHER...

CITY           SKY/WX    TMP DP  RH WIND       PRES   REMARKS
GULFPORT       CLEAR     83  79  88 CALM      30.03S HX  94
PASCAGOULA     CLEAR     80  77  90 CALM      30.05R
MOBILE         PTCLDY    82  77  84 S5        30.07R HX  90
GULF SHORES    CLEAR     78  78 100 CALM      30.05R
PENSACOLA      CLEAR     81  76  84 CALM      30.05R
DESTIN         PTCLDY    90  72  55 S5        30.06R HX  97
PANAMA CITY    CLOUDY    81  76  83 CALM      30.07R
APPALACHICOLA  CLEAR     77  74  90 CALM      30.06R
$$





USA.gov is the U.S. government's official web portal to all federal, state and local government web resources and services.